CZ-3B R/B (57625 NORAD) Tracking and Keplerian Element Data

This shows tracking and keplerian element data for the satellite.

Feedback or suggestion? Click here.




ElementValue
Catalog57625
NameCZ-3B R/B
Epoch Orbit34
Epoch Day238.69322882
Epoch Year2023
RAAN214.0282
Inclination28.5244
Eccentricity0.72288
Argument of Perigee188.3101
Mean Anonmoly145.0578
Mean Motion2.40493548
Decay Rate0.0008973
L11 57625U 23120B 23238.69322882 .00089730 -11673-5 51590-3 0 9995
L22 57625 28.5244 214.0282 7228800 188.3101 145.0578 2.40493548 346



Live tracking and technical data element details for CZ-3B R/B (NORAD 57625). CZ-3B R/B can be tracked NOW for your location showing map with azimuth and elevation plus other details from your city location.







IsCatalogInMostPopularTable: catalog: 57625, numindb: 4
Update: records affected: 1



GetName: 57625 CZ-3B R/B

Hit Count: updated at: Tue, 26 Sep 2023 11:43:06 GMT